Tracking 29487 objects as of 11-Sep-2024
HD Live streaming from Space Station
objects crossing your sky now

STARLINK-2015

Track STARLINK-2015 now!
10-day predictions
STARLINK-2015 is classified as:


NORAD ID: 47638
Int'l Code: 2021-012U
Perigee: 553.4 km
Apogee: 555.2 km
Inclination: 53.1 °
Period: 95.6 minutes
Semi major axis: 6925 km
RCS: Unknown
Launch date: February 16, 2021
Source: United States (US)
Launch site: AIR FORCE EASTERN TEST RANGE (AFETR)
Your satellite tracking list
Your tracking list is empty




NASA's NSSDC Master Catalog

Two Line Element Set (TLE):
1 47638U 21012U   24255.31474546  .00009749  00000-0  67221-3 0  9996
2 47638  53.0536 260.4096 0001352  95.9426 264.1717 15.06415140198750
Source of the keplerian elements: AFSPC